Regional Weather Roundup
Issued by NWS

Home | Current Version | Previous Version | Graphics & Text | Print | Product List | Glossary Off
Versions: 1 2 3 4 5 6 7 8 9 10 11 12 13 14 15 16 17 18 19 20 21 22 23 24 25 26 27 28 29 30 31 32 33 34 35 36 37 38 39 40 41 42 43 44 45 46 47 48 49 50

000
ASUS43 KFSD 261902
RWRSD

WEATHER ROUNDUP FOR SOUTH DAKOTA
NATIONAL WEATHER SERVICE SIOUX FALLS SD
200 PM CDT SUN APR 26 2015

NOTE: "FAIR" INDICATES FEW OR NO CLOUDS BELOW 12,000 FEET WITH NO
SIGNIFICANT WEATHER AND/OR OBSTRUCTIONS TO VISIBILITY.


SDZ001>005-009-010-012>017-262000-
NORTHWEST AND NORTH CENTRAL SOUTH DAKOTA

CITY           SKY/WX    TMP DP  RH WIND       PRES   REMARKS
BUFFALO          N/A     44  43  96 NE20      29.98S
FAITH            N/A     58  40  51 E10       30.02S
MOBRIDGE       CLOUDY    63  38  39 S12       30.03F
$$

SDZ012>016-024>037-041>051-057-063-072>074-262000-
SOUTHWEST AND SOUTH CENTRAL SOUTH DAKOTA

CITY           SKY/WX    TMP DP  RH WIND       PRES   REMARKS
RAPID CTY ARPT CLOUDY    49  45  86 E5        30.01S
PIERRE         MOSUNNY   61  41  47 SE13G21   30.03S
CUSTER         FOG       40  39  97 E14       29.99R VSB<1/4
ELLSWORTH AFB  CLOUDY    48  46  93 CALM      30.01
PHILIP         CLOUDY    58  41  53 SE14      30.02R
PINE RIDGE     LGT RAIN  48  42  80 SE8       30.00R
WINNER         MOCLDY    59  37  44 SE10      30.03F
$$

SDZ004>011-016>023-039-040-262000-
NORTHEAST SOUTH DAKOTA

CITY           SKY/WX    TMP DP  RH WIND       PRES   REMARKS
ABERDEEN       SUNNY     66  32  28 E10       30.08F
WATERTOWN      SUNNY     61  30  31 VRB3      30.08F
BROOKINGS      SUNNY     61  30  31 E6        30.09R
SISSETON         N/A     62  28  27 S5        30.10F
$$

SDZ017-020-022-023-036>040-048>070-262000-
SOUTHEAST SOUTH DAKOTA

CITY           SKY/WX    TMP DP  RH WIND       PRES   REMARKS
SIOUX FALLS    MOSUNNY   62  33  33 SE5       30.05F
HURON          SUNNY     64  31  28 E8        30.06F
MITCHELL       SUNNY     63  34  33 SE13      30.07F
YANKTON        SUNNY     63  32  31 E13G21    30.04F
$$

ABBREVIATIONS USED IN REMARKS
   TC - TEMPERATURE IN CELSIUS
  WCI - WIND CHILL INDEX
   HX - HEAT INDEX
  VSB - VISIBILITY



USA.gov is the U.S. government's official web portal to all federal, state and local government web resources and services.